User: anonymous   Login
Location: Unspecified
(0.0000°N, 0.0000°E)
Time: 07:45:04
(UTC+00:00)
Language:

USA 184 - Orbit

View from above orbital plane
View from above orbital plane
View from above satellite
View from above satellite

Ground track
Ground track

The orbit data is extracted from the following two-line orbital elements,

1 29249U 06027A   17279.73272040 0.00000000  00000-0  00000-0 0    05
2 29249  62.7792 264.9653 6962631 270.0535  17.2177  2.00601400    09
Epoch (UTC): 06 October 2017 17:35:07
Eccentricity: 0.6962631
inclination: 62.7792°
perigee height: 1688 km
apogee height: 38669 km
right ascension of ascending node: 264.9653°
argument of perigee: 270.0535°
revolutions per day: 2.00601400
mean anomaly at epoch: 17.2177°
orbit number at epoch: 0

The dashed part of the orbit path shows where the satellite is in the earth's shadow,  

DLR